| time (UTC) | temp F | wind direction | speed knots | gust knots | rain 1hr in | rain 24hr in | rain mn in | humidity % | barometer mb |
| 20260508135346 | 53 | 293 | 2.6 | 12.2 | 0.00 | 0.08 | 0.01 | 64 | 1003.3 |
| 20260508134836 | 52 | 338 | 5.2 | 13.0 | 0.00 | 0.08 | 0.01 | 66 | 1003.1 |
| 20260508134325 | 52 | 293 | 4.3 | 14.8 | 0.00 | 0.08 | 0.01 | 65 | 1003.3 |
| 20260508133816 | 51 | 315 | 9.6 | 14.8 | 0.00 | 0.08 | 0.01 | 67 | 1003.2 |
| 20260508133305 | 51 | 0 | 5.2 | 13.0 | 0.00 | 0.08 | 0.01 | 67 | 1003.1 |
| 20260508132251 | 50 | 270 | 3.5 | 13.9 | 0.00 | 0.08 | 0.01 | 69 | 1003.2 |
| 20260508131225 | 50 | 315 | 5.2 | 12.2 | 0.00 | 0.08 | 0.01 | 69 | 1003.2 |
| 20260508130716 | 50 | 293 | 5.2 | 12.2 | 0.00 | 0.08 | 0.01 | 71 | 1003.1 |
| 20260508130205 | 49 | 315 | 6.1 | 12.2 | 0.00 | 0.08 | 0.01 | 71 | 1003.2 |
| 20260508125655 | 49 | 180 | 2.6 | 12.2 | 0.00 | 0.08 | 0.01 | 72 | 1003.3 |
| 20260508125145 | 49 | 338 | 3.5 | 11.3 | 0.00 | 0.08 | 0.01 | 73 | 1003.3 |
| 20260508124635 | 49 | 293 | 1.7 | 9.6 | 0.00 | 0.08 | 0.01 | 73 | 1003.2 |
| 20260508124125 | 49 | 293 | 1.7 | 9.6 | 0.00 | 0.08 | 0.01 | 73 | 1003.1 |
| 20260508123104 | 48 | 180 | 3.5 | 13.0 | 0.00 | 0.08 | 0.01 | 73 | 1002.7 |
| 20260508122554 | 48 | 338 | 4.3 | 9.6 | 0.00 | 0.08 | 0.01 | 74 | 1002.8 |
| 20260508122044 | 47 | 248 | 2.6 | 11.3 | 0.00 | 0.08 | 0.01 | 74 | 1002.9 |
| 20260508121535 | 47 | 248 | 1.7 | 13.9 | 0.00 | 0.08 | 0.01 | 75 | 1002.6 |
| 20260508121025 | 47 | 270 | 3.5 | 14.8 | 0.00 | 0.08 | 0.01 | 75 | 1002.5 |
| 20260508120514 | 47 | 270 | 4.3 | 14.8 | 0.00 | 0.08 | 0.01 | 75 | 1002.6 |
| 20260508120004 | 47 | 338 | 5.2 | 14.8 | 0.00 | 0.08 | 0.01 | 75 | 1002.7 |
| 20260508115453 | 47 | 315 | 7.0 | 13.0 | 0.00 | 0.08 | 0.01 | 77 | 1002.7 |
| 20260508114947 | 46 | 293 | 3.5 | 13.0 | 0.00 | 0.08 | 0.01 | 77 | 1002.4 |
| 20260508114433 | 46 | 315 | 2.6 | 9.6 | 0.00 | 0.08 | 0.01 | 77 | 1002.5 |
| 20260508113923 | 46 | 225 | 1.7 | 7.8 | 0.00 | 0.08 | 0.01 | 77 | 1002.3 |
| 20260508113413 | 46 | 338 | 3.5 | 9.6 | 0.00 | 0.08 | 0.01 | 78 | 1002.4 |
| 20260508112904 | 46 | 338 | 1.7 | 9.6 | 0.00 | 0.08 | 0.01 | 78 | 1002.2 |
| 20260508112353 | 46 | 315 | 3.5 | 12.2 | 0.00 | 0.08 | 0.01 | 80 | 1002.2 |
| 20260508111333 | 46 | 270 | 6.1 | 12.2 | 0.00 | 0.08 | 0.01 | 81 | 1001.9 |
| 20260508110822 | 46 | 293 | 3.5 | 12.2 | 0.00 | 0.08 | 0.01 | 84 | 1001.9 |
| 20260508110314 | 46 | 338 | 4.3 | 12.2 | 0.00 | 0.08 | 0.01 | 84 | 1001.9 |
| 20260508105802 | 46 | 225 | 3.5 | 11.3 | 0.00 | 0.08 | 0.01 | 84 | 1001.8 |
| 20260508105252 | 46 | 225 | 3.5 | 13.0 | 0.00 | 0.08 | 0.01 | 84 | 1001.9 |
| 20260508104742 | 46 | 225 | 3.5 | 13.0 | 0.00 | 0.08 | 0.01 | 84 | 1001.9 |
| 20260508104232 | 46 | 293 | 3.5 | 9.6 | 0.00 | 0.08 | 0.01 | 86 | 1001.6 |
| 20260508103722 | 46 | 293 | 3.5 | 9.6 | 0.00 | 0.08 | 0.01 | 86 | 1001.6 |
| 20260508103212 | 46 | 270 | 4.3 | 9.6 | 0.00 | 0.08 | 0.01 | 86 | 1001.7 |
| 20260508102702 | 46 | 248 | 5.2 | 9.6 | 0.00 | 0.08 | 0.01 | 87 | 1001.6 |
| 20260508102151 | 46 | 225 | 3.5 | 9.6 | 0.00 | 0.08 | 0.01 | 88 | 1001.4 |
| 20260508101644 | 46 | 315 | 4.3 | 9.6 | 0.00 | 0.08 | 0.01 | 87 | 1001.4 |
| 20260508100111 | 46 | 225 | 3.5 | 9.6 | 0.00 | 0.08 | 0.01 | 86 | 1000.9 |
| 20260508094538 | 47 | 90 | 5.2 | 14.8 | 0.00 | 0.08 | 0.01 | 85 | 1000.8 |
| 20260508094031 | 47 | 293 | 4.3 | 14.8 | 0.00 | 0.08 | 0.01 | 84 | 1000.8 |
| 20260508093524 | 47 | 270 | 5.2 | 13.0 | 0.00 | 0.08 | 0.01 | 83 | 1000.9 |
| 20260508093014 | 47 | 315 | 3.5 | 14.8 | 0.00 | 0.08 | 0.01 | 82 | 1000.9 |
| 20260508092500 | 47 | 315 | 4.3 | 14.8 | 0.00 | 0.08 | 0.01 | 81 | 1000.7 |
| 20260508091949 | 47 | 293 | 3.5 | 13.9 | 0.00 | 0.08 | 0.01 | 80 | 1000.7 |
| 20260508091440 | 48 | 248 | 2.6 | 12.2 | 0.00 | 0.08 | 0.01 | 79 | 1000.8 |
| 20260508090930 | 48 | 158 | 2.6 | 13.9 | 0.00 | 0.08 | 0.01 | 80 | 1000.6 |
| 20260508090419 | 48 | 315 | 3.5 | 13.9 | 0.00 | 0.08 | 0.01 | 81 | 1000.5 |
| 20260508085909 | 49 | 203 | 3.5 | 13.0 | 0.00 | 0.08 | 0.01 | 79 | 1000.4 |
| 20260508085359 | 49 | 225 | 2.6 | 13.9 | 0.00 | 0.08 | 0.01 | 78 | 1000.5 |
| 20260508084849 | 49 | 293 | 2.6 | 13.9 | 0.00 | 0.08 | 0.01 | 77 | 1000.4 |
| 20260508083829 | 49 | 270 | 3.5 | 11.3 | 0.00 | 0.08 | 0.01 | 76 | 1000.3 |
| 20260508083319 | 49 | 293 | 3.5 | 11.3 | 0.00 | 0.08 | 0.01 | 77 | 1000.3 |
| 20260508082810 | 49 | 248 | 2.6 | 13.0 | 0.00 | 0.08 | 0.01 | 78 | 1000.5 |
| 20260508082258 | 49 | 293 | 3.5 | 13.0 | 0.00 | 0.08 | 0.01 | 77 | 1000.5 |
| 20260508081749 | 49 | 248 | 3.5 | 13.0 | 0.00 | 0.08 | 0.01 | 76 | 1000.5 |
| 20260508081238 | 49 | 270 | 4.3 | 14.8 | 0.00 | 0.08 | 0.01 | 75 | 1000.4 |
| 20260508080728 | 49 | 225 | 1.7 | 14.8 | 0.00 | 0.08 | 0.01 | 74 | 1000.3 |
| 20260508080219 | 49 | 158 | 6.1 | 12.2 | 0.00 | 0.08 | 0.01 | 74 | 1000.5 |
| 20260508075711 | 49 | 248 | 6.1 | 12.2 | 0.00 | 0.08 | 0.01 | 75 | 1000.4 |
| 20260508075157 | 49 | 248 | 4.3 | 13.9 | 0.00 | 0.08 | 0.01 | 76 | 1000.4 |
| 20260508074648 | 49 | 225 | 6.1 | 13.9 | 0.00 | 0.08 | 0.01 | 76 | 1000.3 |
| 20260508074137 | 49 | 270 | 3.5 | 12.2 | 0.00 | 0.08 | 0.01 | 78 | 1000.3 |
| 20260508073627 | 49 | 293 | 3.5 | 13.9 | 0.00 | 0.08 | 0.01 | 77 | 1000.2 |
| 20260508073118 | 49 | 248 | 6.1 | 13.9 | 0.00 | 0.08 | 0.01 | 76 | 1000.5 |
| 20260508072057 | 49 | 0 | 3.5 | 15.6 | 0.00 | 0.08 | 0.01 | 76 | 1000.5 |
| 20260508071547 | 49 | 248 | 2.6 | 15.6 | 0.00 | 0.08 | 0.01 | 76 | 1000.6 |
| 20260508071039 | 49 | 248 | 4.3 | 15.6 | 0.00 | 0.08 | 0.01 | 75 | 1000.6 |
| 20260508070527 | 49 | 293 | 2.6 | 12.2 | 0.00 | 0.08 | 0.01 | 75 | 1000.7 |
| 20260508070017 | 49 | 248 | 3.5 | 12.2 | 0.00 | 0.08 | 0.01 | 76 | 1000.8 |
| 20260508065506 | 49 | 23 | 3.5 | 12.2 | 0.00 | 0.08 | 0.01 | 78 | 1000.8 |
| 20260508064957 | 49 | 248 | 6.1 | 11.3 | 0.00 | 0.08 | 0.01 | 77 | 1000.9 |
| 20260508064447 | 49 | 225 | 5.2 | 12.2 | 0.00 | 0.08 | 0.01 | 76 | 1001.0 |
| 20260508063937 | 49 | 225 | 2.6 | 14.8 | 0.00 | 0.08 | 0.01 | 77 | 1001.0 |
| 20260508063426 | 49 | 45 | 5.2 | 15.6 | 0.00 | 0.08 | 0.01 | 76 | 1001.0 |
| 20260508062916 | 49 | 135 | 7.0 | 17.4 | 0.00 | 0.08 | 0.01 | 76 | 1001.3 |
| 20260508062409 | 49 | 225 | 7.8 | 17.4 | 0.00 | 0.08 | 0.01 | 76 | 1001.1 |
| 20260508061856 | 49 | 180 | 4.3 | 11.3 | 0.00 | 0.08 | 0.01 | 79 | 1001.1 |
| 20260508060836 | 49 | 225 | 6.1 | 13.0 | 0.00 | 0.08 | 0.01 | 79 | 1001.3 |
| 20260508060325 | 49 | 225 | 5.2 | 13.0 | 0.00 | 0.08 | 0.01 | 80 | 1001.2 |
| 20260508055816 | 49 | 203 | 3.5 | 14.8 | 0.00 | 0.08 | 0.01 | 80 | 1001.2 |
| 20260508055308 | 49 | 158 | 6.1 | 14.8 | 0.00 | 0.08 | 0.01 | 79 | 1001.2 |
| 20260508054758 | 49 | 293 | 3.5 | 12.2 | 0.00 | 0.08 | 0.01 | 78 | 1001.1 |
| 20260508054246 | 49 | 158 | 3.5 | 12.2 | 0.00 | 0.08 | 0.01 | 79 | 1001.2 |
| 20260508053736 | 49 | 225 | 4.3 | 9.6 | 0.00 | 0.08 | 0.01 | 78 | 1001.4 |
| 20260508053224 | 49 | 0 | 3.5 | 9.6 | 0.00 | 0.08 | 0.01 | 79 | 1001.2 |
| 20260508052715 | 49 | 225 | 4.3 | 9.6 | 0.00 | 0.08 | 0.01 | 78 | 1001.2 |
| 20260508052206 | 49 | 225 | 4.3 | 13.9 | 0.00 | 0.08 | 0.01 | 80 | 1001.2 |
| 20260508050634 | 49 | 135 | 2.6 | 14.8 | 0.00 | 0.08 | 0.01 | 83 | 1001.0 |
| 20260508050127 | 49 | 225 | 3.5 | 14.8 | 0.00 | 0.08 | 0.01 | 84 | 1001.1 |
| 20260508044554 | 49 | 315 | 3.5 | 11.3 | 0.00 | 0.08 | 0.01 | 84 | 1000.8 |
| 20260508043534 | 49 | 180 | 3.5 | 11.3 | 0.00 | 0.08 | 0.01 | 85 | 1000.9 |
| 20260508042514 | 49 | 248 | 4.3 | 12.2 | 0.00 | 0.08 | 0.01 | 86 | 1000.8 |
| 20260508042003 | 49 | 315 | 4.3 | 11.3 | 0.00 | 0.08 | 0.01 | 88 | 1000.9 |
| 20260508040943 | 48 | 45 | 3.5 | 9.6 | 0.01 | 0.08 | 0.01 | 91 | 1000.9 |
| 20260508040433 | 48 | 270 | 3.5 | 11.3 | 0.01 | 0.08 | 0.01 | 92 | 1001.0 |
| 20260508035923 | 48 | 293 | 4.3 | 13.9 | 0.01 | 0.08 | 0.01 | 92 | 1000.9 |
| 20260508034902 | 49 | 315 | 3.5 | 12.2 | 0.01 | 0.08 | 0.01 | 92 | 1000.8 |
| 20260508034353 | 48 | 248 | 6.1 | 13.0 | 0.01 | 0.08 | 0.01 | 93 | 1001.0 |
| 20260508033843 | 48 | 180 | 5.2 | 13.0 | 0.01 | 0.08 | 0.01 | 94 | 1000.8 |
| 20260508033333 | 48 | 225 | 4.3 | 12.2 | 0.01 | 0.08 | 0.01 | 94 | 1000.9 |
| 20260508032825 | 49 | 180 | 1.7 | 12.2 | 0.01 | 0.08 | 0.01 | 94 | 1001.0 |
| 20260508032312 | 49 | 270 | 5.2 | 13.0 | 0.01 | 0.08 | 0.01 | 94 | 1000.7 |
| 20260508031803 | 49 | 225 | 5.2 | 13.0 | 0.01 | 0.08 | 0.01 | 93 | 1000.9 |
| 20260508031252 | 49 | 68 | 3.5 | 14.8 | 0.01 | 0.08 | 0.01 | 92 | 1000.7 |
| 20260508030742 | 50 | 113 | 2.6 | 18.2 | 0.00 | 0.07 | 0.00 | 90 | 1000.6 |
| 20260508030231 | 50 | 225 | 7.0 | 18.2 | 0.00 | 0.07 | 0.00 | 88 | 1000.8 |
| 20260508025722 | 50 | 225 | 6.1 | 17.4 | 0.00 | 0.07 | 1.04 | 90 | 1000.7 |
| 20260508025212 | 50 | 203 | 6.1 | 13.0 | 0.00 | 0.07 | 1.04 | 91 | 1000.5 |
| 20260508024701 | 50 | 225 | 6.1 | 13.0 | 0.00 | 0.07 | 1.04 | 92 | 1000.7 |
| 20260508024154 | 50 | 338 | 2.6 | 11.3 | 0.00 | 0.07 | 1.04 | 92 | 1000.4 |
| 20260508023641 | 50 | 158 | 5.2 | 11.3 | 0.00 | 0.07 | 1.04 | 93 | 1000.7 |
| 20260508023132 | 50 | 225 | 5.2 | 17.4 | 0.00 | 0.07 | 1.04 | 92 | 1000.7 |
| 20260508022111 | 50 | 203 | 7.8 | 12.2 | 0.00 | 0.07 | 1.04 | 94 | 1000.5 |
| 20260508021602 | 50 | 225 | 4.3 | 13.0 | 0.01 | 0.07 | 1.04 | 95 | 1000.5 |
| 20260508021055 | 50 | 293 | 3.5 | 13.0 | 0.01 | 0.07 | 1.04 | 95 | 1000.5 |
| 20260508020541 | 50 | 203 | 1.7 | 13.0 | 0.02 | 0.07 | 1.04 | 95 | 1000.4 |
| 20260508020030 | 50 | 338 | 3.5 | 14.8 | 0.02 | 0.07 | 1.04 | 95 | 1000.3 |
| 20260508015523 | 50 | 225 | 3.5 | 14.8 | 0.02 | 0.07 | 1.04 | 95 | 1000.4 |
| 20260508015010 | 51 | 248 | 5.2 | 14.8 | 0.04 | 0.07 | 1.04 | 95 | 1000.6 |
| 20260508014459 | 51 | 158 | 1.7 | 9.6 | 0.05 | 0.07 | 1.04 | 95 | 1000.5 |
| 20260508013950 | 51 | 248 | 3.5 | 9.6 | 0.06 | 0.07 | 1.04 | 95 | 1000.5 |
| 20260508013439 | 51 | 293 | 3.5 | 11.3 | 0.06 | 0.07 | 1.04 | 95 | 1000.5 |
| 20260508012930 | 51 | 315 | 3.5 | 13.9 | 0.07 | 0.07 | 1.04 | 95 | 1000.5 |
| 20260508012420 | 51 | 225 | 3.5 | 13.9 | 0.07 | 0.07 | 1.04 | 95 | 1000.5 |
| 20260508011909 | 51 | 270 | 4.3 | 13.0 | 0.07 | 0.07 | 1.04 | 95 | 1000.7 |
| 20260508011359 | 51 | 203 | 3.5 | 9.6 | 0.06 | 0.06 | 1.03 | 96 | 1000.6 |
| 20260508010852 | 51 | 0 | 4.3 | 9.6 | 0.06 | 0.06 | 1.03 | 95 | 1000.6 |
| 20260508010340 | 51 | 338 | 3.5 | 7.8 | 0.05 | 0.05 | 1.02 | 95 | 1000.4 |
| 20260508005829 | 51 | 315 | 1.7 | 12.2 | 0.05 | 0.05 | 1.02 | 95 | 1000.7 |
| 20260508004808 | 51 | 270 | 5.2 | 13.0 | 0.02 | 0.02 | 1.00 | 95 | 1000.7 |
| 20260508003748 | 52 | 315 | 3.5 | 9.6 | 0.01 | 0.01 | 0.98 | 94 | 1000.9 |
| 20260508003238 | 52 | 293 | 3.5 | 11.3 | 0.00 | 0.00 | 0.97 | 93 | 1000.9 |
| 20260508002728 | 52 | 338 | 3.5 | 11.3 | 0.00 | 0.00 | 0.97 | 91 | 1000.9 |
| 20260508002221 | 53 | 270 | 2.6 | 9.6 | 0.00 | 0.00 | 0.97 | 90 | 1001.1 |
| 20260508001708 | 53 | 293 | 3.5 | 9.6 | 0.00 | 0.00 | 0.97 | 87 | 1000.8 |
| 20260508000648 | 54 | 248 | 3.5 | 14.8 | 0.00 | 0.00 | 0.97 | 85 | 1000.7 |
| 20260507235118 | 54 | 315 | 7.0 | 13.0 | 0.00 | 0.00 | 0.97 | 83 | 1000.5 |
| 20260507234058 | 54 | 338 | 5.2 | 11.3 | 0.00 | 0.00 | 0.97 | 84 | 1000.7 |
| 20260507233550 | 54 | 270 | 3.5 | 11.3 | 0.00 | 0.00 | 0.97 | 84 | 1000.7 |
| 20260507233037 | 54 | 293 | 2.6 | 11.3 | 0.00 | 0.00 | 0.97 | 84 | 1000.8 |
| 20260507232017 | 54 | 315 | 2.6 | 9.6 | 0.00 | 0.00 | 0.97 | 84 | 1000.6 |
| 20260507231507 | 54 | 293 | 3.5 | 9.6 | 0.00 | 0.00 | 0.97 | 84 | 1000.8 |
| 20260507230956 | 54 | 248 | 4.3 | 9.6 | 0.00 | 0.00 | 0.97 | 83 | 1000.9 |
| 20260507230446 | 55 | 338 | 3.5 | 7.8 | 0.00 | 0.00 | 0.97 | 82 | 1001.1 |
| 20260507225936 | 54 | 248 | 3.5 | 7.0 | 0.00 | 0.00 | 0.97 | 83 | 1001.1 |
| 20260507225426 | 54 | 338 | 3.5 | 7.0 | 0.00 | 0.00 | 0.97 | 84 | 1001.1 |
| 20260507224919 | 54 | 315 | 1.7 | 9.6 | 0.00 | 0.00 | 0.97 | 84 | 1001.2 |
| 20260507224406 | 54 | 248 | 3.5 | 9.6 | 0.00 | 0.00 | 0.97 | 84 | 1001.1 |
| 20260507223855 | 54 | 270 | 1.7 | 11.3 | 0.00 | 0.00 | 0.97 | 85 | 1001.0 |
| 20260507223346 | 54 | 293 | 1.7 | 11.3 | 0.00 | 0.00 | 0.97 | 86 | 1001.1 |
| 20260507222838 | 54 | 338 | 3.5 | 9.6 | 0.00 | 0.00 | 0.97 | 86 | 1001.0 |
| 20260507222325 | 54 | 293 | 2.6 | 13.9 | 0.00 | 0.00 | 0.97 | 86 | 1001.0 |
| 20260507221816 | 54 | 270 | 3.5 | 13.9 | 0.00 | 0.00 | 0.97 | 86 | 1000.9 |
| 20260507221304 | 55 | 315 | 3.5 | 9.6 | 0.00 | 0.00 | 0.97 | 86 | 1001.0 |
| 20260507220755 | 55 | 293 | 3.5 | 14.8 | 0.00 | 0.00 | 0.97 | 85 | 1000.6 |
| 20260507220247 | 55 | 338 | 3.5 | 14.8 | 0.00 | 0.00 | 0.97 | 84 | 1000.7 |
| 20260507215735 | 55 | 338 | 5.2 | 11.3 | 0.00 | 0.00 | 0.97 | 84 | 1000.4 |
| 20260507214716 | 56 | 270 | 4.3 | 9.6 | 0.00 | 0.00 | 0.97 | 83 | 1000.2 |
| 20260507214204 | 56 | 0 | 2.6 | 9.6 | 0.00 | 0.00 | 0.97 | 83 | 1000.1 |
| 20260507213144 | 56 | 315 | 3.5 | 9.6 | 0.00 | 0.00 | 0.97 | 82 | 1000.4 |
| 20260507212634 | 56 | 338 | 1.7 | 7.0 | 0.00 | 0.00 | 0.97 | 82 | 1000.2 |
| 20260507212124 | 56 | 270 | 1.7 | 7.0 | 0.00 | 0.00 | 0.97 | 82 | 1000.2 |
| 20260507211617 | 56 | 225 | 3.5 | 9.6 | 0.00 | 0.00 | 0.97 | 80 | 1000.3 |
| 20260507211104 | 56 | 293 | 1.7 | 11.3 | 0.00 | 0.00 | 0.97 | 80 | 1000.4 |
| 20260507210554 | 56 | 315 | 3.5 | 11.3 | 0.00 | 0.00 | 0.97 | 80 | 1000.4 |
| 20260507210044 | 56 | 248 | 4.3 | 7.8 | 0.00 | 0.00 | 0.97 | 81 | 1000.3 |
| 20260507205533 | 56 | 338 | 3.5 | 9.6 | 0.00 | 0.00 | 0.97 | 80 | 1000.3 |
| 20260507205024 | 56 | 293 | 3.5 | 9.6 | 0.00 | 0.00 | 0.97 | 79 | 1000.1 |
| 20260507204513 | 56 | 338 | 1.7 | 9.6 | 0.00 | 0.00 | 0.97 | 79 | 999.8 |
| 20260507204003 | 56 | 338 | 3.5 | 13.0 | 0.00 | 0.00 | 0.97 | 78 | 1000.0 |
| 20260507203452 | 57 | 315 | 6.1 | 13.0 | 0.00 | 0.00 | 0.97 | 77 | 999.8 |
| 20260507202946 | 57 | 338 | 6.1 | 11.3 | 0.00 | 0.00 | 0.97 | 77 | 999.7 |
| 20260507202434 | 57 | 270 | 5.2 | 9.6 | 0.00 | 0.00 | 0.97 | 76 | 999.7 |
| 20260507201928 | 57 | 315 | 2.6 | 9.6 | 0.00 | 0.00 | 0.97 | 75 | 999.8 |
| 20260507201412 | 57 | 293 | 2.6 | 11.3 | 0.00 | 0.00 | 0.97 | 74 | 999.7 |
| 20260507200903 | 57 | 248 | 3.5 | 11.3 | 0.00 | 0.00 | 0.97 | 74 | 999.7 |
| 20260507195844 | 57 | 203 | 3.5 | 13.9 | 0.00 | 0.00 | 0.97 | 73 | 999.4 |
| 20260507195344 | 58 | 338 | 5.2 | 13.9 | 0.00 | 0.00 | 0.97 | 74 | 998.8 |
| 20260507194821 | 58 | 248 | 3.5 | 9.6 | 0.00 | 0.00 | 0.97 | 74 | 998.6 |
| 20260507193252 | 58 | 203 | 3.5 | 14.8 | 0.00 | 0.00 | 0.97 | 72 | 998.2 |
| 20260507192741 | 59 | 270 | 3.5 | 9.6 | 0.00 | 0.00 | 0.97 | 72 | 998.3 |
| 20260507191721 | 59 | 0 | 1.7 | 12.2 | 0.00 | 0.00 | 0.97 | 71 | 998.7 |
| 20260507191211 | 59 | 180 | 2.6 | 12.2 | 0.00 | 0.00 | 0.97 | 70 | 998.9 |
| 20260507190701 | 60 | 45 | 3.5 | 11.3 | 0.00 | 0.00 | 0.97 | 69 | 999.1 |
| 20260507190150 | 60 | 248 | 7.0 | 13.0 | 0.00 | 0.00 | 0.97 | 69 | 999.3 |
| 20260507185644 | 59 | 293 | 6.1 | 13.0 | 0.00 | 0.00 | 0.97 | 69 | 999.7 |
| 20260507184626 | 59 | 248 | 3.5 | 9.6 | 0.00 | 0.00 | 0.97 | 72 | 1000.3 |
| 20260507184110 | 59 | 270 | 3.5 | 11.3 | 0.00 | 0.00 | 0.97 | 72 | 1000.5 |
| 20260507182541 | 59 | 293 | 3.5 | 20.0 | 0.00 | 0.00 | 0.97 | 72 | 1000.5 |
| 20260507182027 | 59 | 248 | 5.2 | 20.0 | 0.00 | 0.00 | 0.97 | 71 | 1000.7 |
| 20260507181517 | 59 | 315 | 3.5 | 9.6 | 0.00 | 0.00 | 0.97 | 73 | 1001.1 |
| 20260507181011 | 59 | 338 | 6.1 | 12.2 | 0.00 | 0.00 | 0.97 | 73 | 1001.1 |
| 20260507180459 | 59 | 338 | 6.1 | 12.2 | 0.00 | 0.00 | 0.97 | 73 | 1001.2 |
| 20260507175440 | 59 | 293 | 3.5 | 13.9 | 0.00 | 0.00 | 0.97 | 73 | 1001.3 |
| 20260507174930 | 59 | 45 | 3.5 | 11.3 | 0.00 | 0.00 | 0.97 | 74 | 1001.5 |
| 20260507174419 | 59 | 68 | 7.0 | 11.3 | 0.00 | 0.00 | 0.97 | 74 | 1001.5 |
| 20260507173909 | 59 | 338 | 2.6 | 12.2 | 0.00 | 0.00 | 0.97 | 76 | 1001.1 |
| 20260507173359 | 59 | 225 | 3.5 | 12.2 | 0.00 | 0.00 | 0.97 | 74 | 1001.3 |
| 20260507172342 | 59 | 315 | 2.6 | 7.0 | 0.00 | 0.00 | 0.97 | 73 | 1000.1 |
| 20260507171829 | 59 | 203 | 3.5 | 7.8 | 0.00 | 0.00 | 0.97 | 73 | 999.9 |
| 20260507171318 | 59 | 225 | 1.7 | 7.8 | 0.00 | 0.00 | 0.97 | 74 | 1000.0 |
| 20260507170808 | 59 | 180 | 2.6 | 7.8 | 0.00 | 0.00 | 0.97 | 73 | 999.9 |
| 20260507170259 | 59 | 315 | 1.7 | 7.8 | 0.00 | 0.00 | 0.97 | 74 | 999.9 |
| 20260507165748 | 59 | 203 | 3.5 | 9.6 | 0.00 | 0.00 | 0.97 | 73 | 1000.0 |
| 20260507165239 | 59 | 293 | 2.6 | 11.3 | 0.00 | 0.00 | 0.97 | 73 | 1000.1 |
| 20260507164728 | 59 | 0 | 1.7 | 11.3 | 0.00 | 0.00 | 0.97 | 74 | 1000.3 |
| 20260507164218 | 59 | 293 | 3.5 | 7.8 | 0.00 | 0.00 | 0.97 | 74 | 1000.3 |
| 20260507163711 | 59 | 158 | 1.7 | 9.6 | 0.00 | 0.00 | 0.97 | 76 | 1001.0 |
| 20260507163158 | 59 | 338 | 3.5 | 9.6 | 0.00 | 0.00 | 0.97 | 75 | 1001.0 |
| 20260507162648 | 59 | 248 | 1.7 | 7.8 | 0.00 | 0.00 | 0.97 | 75 | 1001.2 |
| 20260507162139 | 59 | 270 | 3.5 | 7.0 | 0.00 | 0.00 | 0.97 | 75 | 1001.4 |
| 20260507161627 | 59 | 270 | 3.5 | 7.0 | 0.00 | 0.00 | 0.97 | 75 | 1001.4 |
| 20260507161117 | 59 | 248 | 3.5 | 7.0 | 0.00 | 0.00 | 0.97 | 75 | 1001.2 |
| 20260507160607 | 59 | 248 | 2.6 | 9.6 | 0.00 | 0.00 | 0.97 | 76 | 1000.8 |
| 20260507160058 | 59 | 203 | 3.5 | 9.6 | 0.00 | 0.00 | 0.97 | 75 | 1000.5 |
| 20260507155547 | 59 | 225 | 2.6 | 7.8 | 0.00 | 0.00 | 0.97 | 76 | 1000.2 |
| 20260507155043 | 59 | 248 | 1.7 | 7.8 | 0.00 | 0.00 | 0.97 | 77 | 1000.5 |
| 20260507154528 | 58 | 315 | 3.5 | 9.6 | 0.00 | 0.00 | 0.97 | 77 | 1000.5 |
| 20260507154016 | 58 | 338 | 3.5 | 9.6 | 0.00 | 0.00 | 0.97 | 76 | 1000.2 |
| 20260507152956 | 59 | 248 | 1.7 | 7.0 | 0.00 | 0.00 | 0.97 | 78 | 1000.0 |
| 20260507152447 | 59 | 158 | 2.6 | 7.8 | 0.00 | 0.00 | 0.97 | 77 | 1000.5 |
| 20260507151936 | 59 | 225 | 3.5 | 7.8 | 0.00 | 0.00 | 0.97 | 77 | 1000.7 |
| 20260507151426 | 59 | 338 | 3.5 | 11.3 | 0.00 | 0.00 | 0.97 | 76 | 1000.5 |
| 20260507150408 | 59 | 248 | 2.6 | 0.0 | 0.00 | 0.00 | 0.97 | 75 | 1000.5 |
| 20260507150152 | 60 | 180 | 3.5 | 0.0 | 0.00 | 0.00 | 0.97 | 75 | 1000.7 |
| 20260507145720 | 59 | 203 | 3.5 | 11.3 | 0.00 | 0.00 | 0.97 | 74 | 1000.8 |
| 20260507145211 | 59 | 248 | 3.5 | 11.3 | 0.00 | 0.00 | 0.97 | 75 | 1000.8 |
| 20260507144703 | 59 | 225 | 3.5 | 7.8 | 0.00 | 0.00 | 0.97 | 76 | 1000.5 |
| 20260507144151 | 59 | 203 | 1.7 | 11.3 | 0.00 | 0.00 | 0.97 | 77 | 1000.6 |
| 20260507143641 | 59 | 158 | 2.6 | 12.2 | 0.00 | 0.00 | 0.97 | 77 | 1000.6 |
| 20260507143130 | 59 | 338 | 5.2 | 12.2 | 0.00 | 0.00 | 0.97 | 80 | 1000.5 |
| 20260507142620 | 60 | 338 | 3.5 | 9.6 | 0.00 | 0.00 | 0.97 | 83 | 1000.7 |
| 20260507142110 | 60 | 270 | 2.6 | 9.6 | 0.00 | 0.00 | 0.97 | 85 | 1000.5 |
| 20260507141600 | 60 | 315 | 4.3 | 9.6 | 0.00 | 0.00 | 0.97 | 86 | 1000.4 |
| 20260507140545 | 60 | 293 | 1.7 | 7.0 | 0.00 | 0.00 | 0.97 | 88 | 1000.0 |